This is the latest recevied weather packets stored in our database for station/object AD0YN. If no packets are shown the sender has not sent any weather packets the latest 10 day(s).
| Time | Temp. | Humidity | Pressure | Rain* | Wind** | Luminosity | Snow |
|---|---|---|---|---|---|---|---|
| 1777913605 | 23.89° C | 44% | 1002.6 hPa | 0 mm | - | 866 W/m² | - |
| 1777913302 | 23.89° C | 44% | 1002.7 hPa | 0 mm | - | 856 W/m² | - |
| 1777912999 | 23.33° C | 45% | 1002.7 hPa | 0 mm | - | 848 W/m² | - |
| 1777912695 | 23.33° C | 46% | 1002.9 hPa | 0 mm | - | 840 W/m² | - |
| 1777912391 | 23.33° C | 45% | 1002.9 hPa | 0 mm | - | 828 W/m² | - |
| 1777912088 | 23.33° C | 44% | 1002.7 hPa | 0 mm | - | 818 W/m² | - |
| 1777911783 | 22.78° C | 49% | 1002.7 hPa | 0 mm | - | 776 W/m² | - |
| 1777911480 | 22.78° C | 47% | 1002.7 hPa | 0 mm | - | 797 W/m² | - |
| 1777911177 | 22.78° C | 46% | 1002.9 hPa | 0 mm | - | 787 W/m² | - |
| 1777910874 | 22.78° C | 47% | 1003 hPa | 0 mm | - | 776 W/m² | - |
| 1777910570 | 22.78° C | 48% | 1002.9 hPa | 0 mm | - | 766 W/m² | - |
| 1777910268 | 22.78° C | 45% | 1003 hPa | 0 mm | - | 753 W/m² | - |
| 1777909965 | 22.78° C | 47% | 1002.8 hPa | 0 mm | - | 742 W/m² | - |
| 1777909662 | 22.22° C | 47% | 1002.8 hPa | 0 mm | - | 731 W/m² | - |
| 1777909359 | 22.22° C | 47% | 1002.8 hPa | 0 mm | - | 719 W/m² | - |
| 1777909057 | 22.22° C | 46% | 1002.7 hPa | 0 mm | - | 707 W/m² | - |
| 1777908754 | 22.22° C | 48% | 1002.7 hPa | 0 mm | - | 693 W/m² | - |
| 1777908451 | 22.22° C | 46% | 1003 hPa | 0 mm | - | 680 W/m² | - |
| 1777908148 | 22.22° C | 47% | 1002.8 hPa | 0 mm | - | 670 W/m² | - |
| 1777907844 | 22.22° C | 47% | 1002.8 hPa | 0 mm | - | 656 W/m² | - |
| 1777907540 | 22.22° C | 47% | 1002.9 hPa | 0 mm | - | 643 W/m² | - |
| 1777907236 | 21.67° C | 50% | 1002.7 hPa | 0 mm | - | 629 W/m² | - |
| 1777906933 | 21.67° C | 48% | 1002.8 hPa | 0 mm | - | 614 W/m² | - |
| 1777906631 | 21.67° C | 49% | 1002.9 hPa | 0 mm | - | 600 W/m² | - |
| 1777906326 | 21.67° C | 48% | 1002.9 hPa | 0 mm | - | 585 W/m² | - |
* Rain latest hour (hover to see other rain measurements)
** Current wind speed in m/s (hover to see current wind gust speed)